TimePDT,TemperatureF,Dew PointF,Humidity,Sea Level PressureIn,VisibilityMPH,Wind Direction,Wind SpeedMPH,Gust SpeedMPH,PrecipitationIn,Events,Conditions,WindDirDegrees,DateUTC
12:53 AM,46.0,45.0,96,30.25,10.0,SE,5.8,-,0.01,,Overcast,130,2012-04-28 07:53:00
1:53 AM,46.0,45.0,96,30.24,7.0,SE,5.8,-,0.00,,Overcast,130,2012-04-28 08:53:00
2:53 AM,46.9,45.0,93,30.23,10.0,SE,5.8,-,N/A,,Overcast,130,2012-04-28 09:53:00
3:53 AM,46.9,45.0,93,30.23,10.0,SE,4.6,-,N/A,,Overcast,130,2012-04-28 10:53:00
4:53 AM,46.9,45.0,93,30.22,10.0,SE,4.6,-,N/A,,Overcast,140,2012-04-28 11:53:00
5:35 AM,46.4,44.6,93,30.21,10.0,SE,6.9,-,N/A,,Overcast,140,2012-04-28 12:35:00
5:53 AM,48.0,44.1,86,30.22,10.0,SE,6.9,-,N/A,,Overcast,140,2012-04-28 12:53:00
6:53 AM,48.0,45.0,89,30.22,10.0,ESE,5.8,-,N/A,,Overcast,120,2012-04-28 13:53:00
7:53 AM,48.9,46.0,90,30.24,10.0,ESE,3.5,-,0.00,Rain,Light Rain,120,2012-04-28 14:53:00
8:53 AM,48.9,46.9,93,30.24,10.0,SE,5.8,-,0.02,,Overcast,140,2012-04-28 15:53:00
9:42 AM,50.0,48.2,94,30.24,2.5,SE,6.9,-,0.00,Rain,Light Rain,140,2012-04-28 16:42:00
9:53 AM,50.0,48.0,93,30.25,1.5,SE,6.9,-,0.01,Rain,Light Rain,140,2012-04-28 16:53:00
10:02 AM,50.0,48.2,94,30.24,1.8,Variable,6.9,-,0.00,Rain,Light Rain,0,2012-04-28 17:02:00
10:04 AM,50.0,48.2,94,30.24,2.0,SE,6.9,-,0.01,Rain,Light Rain,130,2012-04-28 17:04:00
10:10 AM,50.0,48.2,94,30.24,2.5,SE,8.1,-,0.01,Rain,Light Rain,140,2012-04-28 17:10:00
10:20 AM,50.0,48.2,94,30.24,1.8,SSE,8.1,-,0.01,Rain,Light Rain,150,2012-04-28 17:20:00
10:26 AM,50.0,48.2,94,30.24,2.0,SE,6.9,-,0.02,Rain,Light Rain,130,2012-04-28 17:26:00
10:35 AM,50.0,48.2,94,30.24,5.0,SE,8.1,-,0.02,Rain,Light Rain,130,2012-04-28 17:35:00
10:43 AM,50.0,48.2,94,30.24,2.5,SE,6.9,-,0.02,Rain,Light Rain,140,2012-04-28 17:43:00
10:53 AM,50.0,48.9,96,30.25,1.5,SSE,6.9,-,0.03,Rain,Light Rain,150,2012-04-28 17:53:00
10:58 AM,51.8,48.2,88,30.24,1.8,SE,8.1,-,0.01,Rain,Light Rain,140,2012-04-28 17:58:00
11:04 AM,51.8,48.2,88,30.24,3.0,Variable,4.6,-,0.01,Rain,Light Rain,0,2012-04-28 18:04:00
11:16 AM,51.8,48.2,88,30.24,10.0,SSE,4.6,-,0.01,,Overcast,150,2012-04-28 18:16:00
11:25 AM,51.8,50.0,94,30.24,10.0,Variable,3.5,-,0.01,,Overcast,0,2012-04-28 18:25:00
11:53 AM,51.1,48.9,92,30.24,10.0,Variable,4.6,-,0.01,,Overcast,0,2012-04-28 18:53:00
12:07 PM,51.8,48.2,88,30.24,10.0,SSE,6.9,-,N/A,,Overcast,150,2012-04-28 19:07:00
12:46 PM,51.8,48.2,88,30.25,8.0,Variable,4.6,-,N/A,,Overcast,0,2012-04-28 19:46:00
12:53 PM,51.1,48.9,92,30.25,3.0,Variable,5.8,-,0.00,Rain,Light Rain,0,2012-04-28 19:53:00
1:00 PM,51.8,48.2,88,30.24,2.5,SSE,8.1,-,0.00,Rain,Light Rain,160,2012-04-28 20:00:00
1:12 PM,51.8,50.0,94,30.24,1.8,Variable,5.8,-,0.01,Rain,Light Rain,0,2012-04-28 20:12:00
1:26 PM,51.8,50.0,94,30.24,1.5,Variable,6.9,-,0.01,Rain,Light Rain,0,2012-04-28 20:26:00
1:53 PM,52.0,51.1,97,30.24,1.5,South,8.1,-,0.02,Rain,Light Rain,190,2012-04-28 20:53:00
2:32 PM,51.8,51.8,100,30.24,3.0,Variable,6.9,-,0.02,Rain,Light Rain,0,2012-04-28 21:32:00
2:42 PM,51.8,50.0,94,30.24,2.0,South,6.9,19.6,0.02,Rain,Light Rain,170,2012-04-28 21:42:00
2:53 PM,52.0,51.1,97,30.24,4.0,South,8.1,-,0.03,,Overcast,180,2012-04-28 21:53:00
3:53 PM,51.1,50.0,96,30.24,3.0,South,8.1,-,0.00,Rain,Light Rain,180,2012-04-28 22:53:00
4:03 PM,51.8,50.0,94,30.23,2.0,South,9.2,16.1,0.01,Rain,Light Rain,180,2012-04-28 23:03:00
4:11 PM,51.8,50.0,94,30.23,1.5,South,6.9,16.1,0.01,Rain,Light Rain,180,2012-04-28 23:11:00
4:18 PM,51.8,50.0,94,30.23,1.0,Variable,6.9,16.1,0.01,Rain,Light Rain,0,2012-04-28 23:18:00
4:38 PM,51.8,51.8,100,30.23,0.8,Variable,5.8,18.4,0.02,Rain,Light Rain,0,2012-04-28 23:38:00
4:53 PM,51.1,51.1,100,30.23,0.8,South,6.9,-,0.03,Rain,Light Rain,190,2012-04-28 23:53:00
5:04 PM,51.8,50.0,94,30.23,1.0,South,8.1,-,0.00,,Overcast,190,2012-04-29 00:04:00
5:12 PM,51.8,51.8,100,30.23,0.8,SSW,6.9,-,0.01,Rain,Light Rain,210,2012-04-29 00:12:00
5:53 PM,51.1,51.1,100,30.23,1.0,SW,5.8,-,0.03,,Overcast,220,2012-04-29 00:53:00
6:19 PM,51.8,50.0,94,30.23,1.5,WSW,6.9,-,0.01,,Overcast,240,2012-04-29 01:19:00
6:23 PM,51.8,50.0,94,30.23,2.0,WSW,5.8,-,0.01,,Overcast,240,2012-04-29 01:23:00
6:45 PM,51.8,50.0,94,30.22,1.8,WSW,5.8,-,0.01,,Overcast,250,2012-04-29 01:45:00
6:47 PM,51.8,50.0,94,30.22,2.0,WSW,5.8,-,0.01,,Overcast,250,2012-04-29 01:47:00
6:53 PM,51.1,50.0,96,30.22,2.0,West,5.8,-,0.01,,Overcast,260,2012-04-29 01:53:00
7:00 PM,-9999,-9999,N/A,-9999,-9999.0,North,-9999.0,-,N/A,,Unknown,0,2012-04-29 02:00:00
7:08 PM,51.8,50.0,94,30.22,3.0,West,5.8,-,0.01,,Overcast,260,2012-04-29 02:08:00
7:30 PM,50.0,50.0,100,30.21,3.0,WSW,5.8,-,0.01,,Overcast,240,2012-04-29 02:30:00
7:46 PM,50.0,48.2,94,30.22,2.0,West,4.6,-,0.01,,Overcast,270,2012-04-29 02:46:00
7:53 PM,50.0,48.9,96,30.22,3.0,WSW,4.6,-,0.01,,Overcast,250,2012-04-29 02:53:00
8:13 PM,50.0,48.2,94,30.22,4.0,Calm,Calm,-,N/A,,Overcast,0,2012-04-29 03:13:00
8:18 PM,50.0,50.0,100,30.22,2.0,Calm,Calm,-,N/A,,Overcast,0,2012-04-29 03:18:00
8:25 PM,50.0,50.0,100,30.22,1.5,West,3.5,-,N/A,,Overcast,280,2012-04-29 03:25:00
8:35 PM,50.0,48.2,94,30.22,3.0,Calm,Calm,-,0.00,Rain,Light Rain,0,2012-04-29 03:35:00
8:53 PM,50.0,48.9,96,30.23,5.0,Calm,Calm,-,0.00,,Overcast,0,2012-04-29 03:53:00
9:41 PM,50.0,48.2,94,30.23,6.0,Calm,Calm,-,0.01,,Overcast,0,2012-04-29 04:41:00
9:53 PM,50.0,48.9,96,30.23,10.0,Calm,Calm,-,0.01,,Overcast,0,2012-04-29 04:53:00
10:28 PM,50.0,48.2,94,30.23,7.0,Calm,Calm,-,N/A,,Overcast,0,2012-04-29 05:28:00
10:35 PM,50.0,48.2,94,30.23,4.0,Calm,Calm,-,N/A,,Overcast,0,2012-04-29 05:35:00
10:41 PM,50.0,48.2,94,30.23,3.0,Calm,Calm,-,N/A,,Overcast,0,2012-04-29 05:41:00
10:48 PM,48.2,48.2,100,30.23,3.0,Calm,Calm,-,N/A,,Overcast,0,2012-04-29 05:48:00
10:53 PM,50.0,48.9,96,30.23,3.0,Calm,Calm,-,0.00,Rain,Light Rain,0,2012-04-29 05:53:00
11:00 PM,48.2,48.2,100,30.22,2.5,Calm,Calm,-,0.00,Rain,Light Rain,0,2012-04-29 06:00:00
11:36 PM,48.2,48.2,100,30.22,3.0,Calm,Calm,-,0.02,Rain,Light Rain,0,2012-04-29 06:36:00
11:53 PM,48.9,48.9,100,30.22,3.0,Calm,Calm,-,0.02,,Overcast,0,2012-04-29 06:53:00